Weather History for KABY - January, 2014

Change the Weather History Date:

Wednesday, January 8, 2014

  Actual Average Record
Temperature  
Mean Temperature 38 °F 49 °F  
Max Temperature 54 °F 60 °F 79 °F (1946)
Min Temperature 21 °F 38 °F 12 °F (1970)
Degree Days  
Heating Degree Days 27 16  
Month to date heating degree days 188 128  
Since 1 July heating degree days 814 841  
Cooling Degree Days 0 0  
Month to date cooling degree days 0 0  
Year to date cooling degree days 0 0  
Moisture  
Dew Point 13 °F    
Average Humidity 45    
Maximum Humidity 71    
Minimum Humidity 18    
Precipitation  
Precipitation 0.00 in - 0.45 in (2007)
Month to date precipitation 0.20  
Year to date precipitation 0.20  
Sea Level Pressure  
Sea Level Pressure 30.51 in    
Wind  
Wind Speed 5 mph (NE)    
Max Wind Speed 14 mph    
Max Gust Speed 16 mph    
Visibility 10 miles    
Events      
T = Trace of Precipitation, MM = Missing Value Source: NWS Daily Summary

Daily Weather History Graph

Daily Weather History Graph

Search for Another Location

Airport or City:

Trip Planner

Search our weather history database for the weather conditions in past years. The results will help you decide how hot, cold, wet, or windy it might be!

Date:

Astronomy

Jan. 08, 2014 Rise Set
Actual Time 7:37 AM EST 5:50 PM EST
Civil Twilight 7:10 AM EST 6:16 PM EST
Nautical Twilight 6:40 AM EST 6:46 PM EST
Astronomical Twilight 6:11 AM EST 7:16 PM EST
Moon 12:30 PM EST (1/8) 12:55 AM EST (1/8)
Length of Visible Light 11h 06m
Length of Day
10h 13m
First Quarter, 56% of the Moon is Illuminated
Jan 8
First Quarter
Jan 15
Full
Jan 24
Last Quarter
Jan 30
New
Feb 6
First Quarter

Hourly Weather History & Observations

Time (EST) Temp. Windchill Dew Point Humidity Pressure Visibility Wind Dir Wind Speed Gust Speed Precip Events Conditions
12:53 AM 24.1 °F - 14.0 °F 65% 30.54 in 10.0 mi Calm Calm - N/A   Clear
1:53 AM 23.0 °F - 14.0 °F 68% 30.53 in 10.0 mi Calm Calm - N/A   Clear
2:53 AM 28.0 °F - 14.0 °F 56% 30.53 in 10.0 mi Calm Calm - N/A   Clear
3:53 AM 28.0 °F - 14.0 °F 56% 30.54 in 10.0 mi Calm Calm - N/A   Clear
4:53 AM 25.0 °F - 14.0 °F 63% 30.53 in 10.0 mi Calm Calm - N/A   Clear
5:53 AM 21.9 °F - 14.0 °F 72% 30.51 in 10.0 mi Calm Calm - N/A   Clear
6:53 AM 32.0 °F 28.7 °F 14.0 °F 48% 30.53 in 10.0 mi North 3.5 mph - N/A   Clear
7:53 AM 21.0 °F 16.2 °F 14.0 °F 74% 30.56 in 10.0 mi NNE 3.5 mph - N/A   Clear
8:53 AM 39.9 °F 35.8 °F 15.1 °F 36% 30.58 in 10.0 mi ENE 5.8 mph - N/A   Clear
9:53 AM 43.0 °F 36.8 °F 10.9 °F 27% 30.59 in 10.0 mi NE 11.5 mph - N/A   Clear
10:53 AM 48.9 °F - 10.0 °F 21% 30.59 in 10.0 mi ENE 9.2 mph - N/A   Clear
11:53 AM 54.0 °F - 10.0 °F 17% 30.56 in 10.0 mi ENE 9.2 mph - N/A   Clear
12:53 PM 39.9 °F 35.8 °F 9.0 °F 28% 30.51 in 10.0 mi East 5.8 mph - N/A   Clear
1:53 PM 44.1 °F 40.1 °F 9.0 °F 24% 30.48 in 10.0 mi ENE 6.9 mph - N/A   Clear
2:53 PM 46.0 °F 42.5 °F 9.0 °F 22% 30.46 in 10.0 mi North 6.9 mph - N/A   Clear
3:53 PM 48.0 °F - 9.0 °F 21% 30.46 in 10.0 mi NE 9.2 mph - N/A   Clear
4:53 PM 46.0 °F 41.0 °F 10.0 °F 23% 30.46 in 10.0 mi East 10.4 mph - N/A   Clear
5:53 PM 43.0 °F 40.3 °F 12.0 °F 28% 30.46 in 10.0 mi NE 4.6 mph - N/A   Scattered Clouds
6:53 PM 42.1 °F - 17.1 °F 37% 30.47 in 10.0 mi Calm Calm - N/A   Overcast
7:53 PM 41.0 °F 39.0 °F 18.0 °F 40% 30.48 in 10.0 mi ENE 3.5 mph - N/A   Overcast
8:53 PM 43.0 °F 40.3 °F 16.0 °F 34% 30.49 in 10.0 mi ENE 4.6 mph - N/A   Overcast
9:37 PM 42.8 °F 39.3 °F 15.8 °F 34% 30.49 in 10.0 mi NE 5.8 mph - N/A   Overcast
9:53 PM 43.0 °F 40.3 °F 15.1 °F 32% 30.49 in 10.0 mi NE 4.6 mph - N/A   Overcast
10:48 PM 42.8 °F 39.3 °F 17.6 °F 36% 30.47 in 10.0 mi ENE 5.8 mph - N/A   Overcast
10:53 PM 42.1 °F 39.2 °F 17.1 °F 37% 30.48 in 10.0 mi ENE 4.6 mph - N/A   Overcast
11:53 PM 43.0 °F 40.3 °F 18.0 °F 37% 30.46 in 10.0 mi NE 4.6 mph - N/A   Overcast